SCP
0 0 0 0 0 0 0 0 0 0 0 0 0 0 0 0 -0 -0 -0 -0 -0 -0 0 0 0 0 0 0 0 0 -0 -0 0 0 0 0 0 0 0 0 0 0 0 0
0 0 0 0 0 0 0 0 0 0 0 0 0 0 0 -0 -0 -0 -0 -0 -0 0 0 0 0 0 0 0 0 0 0 0 0 0 0 0 0 0 0 0 0 0 0 0
0 0 0 0 0 0 0 0 0 0 0 0 0 0 0 -0 -0 -0 -0 -0 0 0 0 0 0 0 0 0 0 0 0 0 0 0 0 0 0 0 0 0 0 0 0 0
0 0 0 0 0 0 0 0 0 0 0 0 0 0 -0 -0 -0 -0 -0 -0 0 0 0 0 0 0 0 0 0 0 0 0 0 0 0 0 0 0 0 0 0 0 0 0
0 0 0 0 0 0 0 0 0 0 0 0 0 0 -0 -0 -0 -0 -0 -0 0 0 0 0 0 0 0 0 0 0 0 0 0 0 0 0 0 0 0 0 0 0 0 0
0 0 0 0 0 0 0 0 0 -0 -0 -0 -0 -0 -0 -0 -0 -0 0 0 0 0 0 0 0 0 0 0 0 0 0 0 0 0 0 0 0 0 0 0 0 0 0 0
0 0 0 0 0 0 0 0 0 -0 -0 -0 -0 -0 -0 0 0 0 0 0 0 0 0 0 0 0 0 0 0 0 0 0 0 0 0 0 0 0 0 0 0 0 0 0
0 0 0 0 0 0 0 0 0 -0 -0 -0 -0 -0 -0 0 0 0 0 0 0 0 0 0 0 0 0 0 0 0 0 0 0 0 0 0 0 0 0 0 0 0 0 0
0 0 0 0 0 0 0 0 0 0 -0 -0 -0 -0 0 0 0 0 0 0 0 0 0 0 0 0 0 0 0 0 0 0 0 0 0 0 0 0 0 0 0 0 0 0
0 0 0 0 0 0 0 0 0 0 0 0 -0 -0 -0 0 0 0 0 0 0 0 0 0 0 0 0 0 0 0 0 0 0 0 0 0 0 0 0 0 0 0 0 0
0 0 0 0 0 0 0 0 0 0 0 0 0 0 0 0 0 0 0 0 0 0 0 0 0 0 0 0 0 0 0 0 0 0 0 0 0 0 0 0 0 0 0 0
0 -0 0 0 0 0 0 0 0 0 0 0 0 0 0 0 0 0 0 0 0 0 0 0 0 0 0 0 0 0 0 0 0 0 0 0 0 0 0 0 0 0 0 0
0 0 0 0 0 0 0 0 0 0 0 0 0 0 0 0 0 0 0 0 0 0 0 0 0 0 0 0 0 0 0 0 0 0 0 0 0 0 0 0 0 0 0 0
0 0 0 0 0 0 0 0 0 0 0 0 0 0 0 0 0 0 0 0 0 0 0 0 0 0 0 0 0 0 0 0 0 0 0 0 0 0 0 0 0 0 0 0
0 0 0 0 0 0 0 0 0 0 0 0 0 0 0 0 0 0 0 0 0 0 0 0 0 0 0 0 0 0 0 0 0 0 0 0 0 0 0 0 0 0 0 0
0 0 0 0 0 0 0 0 0 0 0 0 0 0 0 0 0 0 0 0 0 0 0 0 0 0 0 0 0 0 0 0 0 0 0 0 0 0 0 0 0 0 0 0
0 0 0 0 0 0 0 0 0 0 0 0 0 0 0 0 0 0 0 0 0 0 0 0 0 0 0 0 0 0 0 0 0 0 0 0 0 0 0 0 0 0 0 0
0 0 0 0 0 0 -0 0 0 0 0 0 0 0 0 0 0 0 0 0 0 0 0 0 0 0 0 0 0 0 0 0 0 0 0 0 0 0 0 0 0 0 0 0
0 0 -0 -0 -0 0 0 0 0 0 0 0 0 0 0 0 0 0 0 0 0 0 0 0 0 0 0 0 0 0 0 0 0 0 0 0 0 0 0 0 0 0 0 0
0 0 0 0 0 0 0 0 0 0 0 0 0 0 0 0 0 0 0 0 0 0 0 0 0 0 0 0 0 0 0 0 0 0 0 0 0 0 0 0 0 0 0 0
0 0 0 0 0 0 0 0 0 0 0 0 0 0 0 0 0 0 0 0 0 0 0 0 0 0 0 0 0 0 0 0 0 0 0 0 0 0 0 0 0 0 0 0
0 0 0 0 0 0 0 0 0 0 0 0 0 0 0 0 0 0 0 0 0 0 0 0 0 0 0 0 0 0 0 0 0 0 0 0 0 0 0 0 0 0 0 0
0 0 0 0 0 0 0 0 0 0 0 0 0 0 0 0 0 0 0 0 0 0 0 0 0 0 0 0 0 0 0 0 0 0 0 0 0 0 0 0 0 0 0 0
0 0 0 0 0 0 0 0 0 0 0 0 0 0 0 0 0 0 0 0 0 0 0 0 0 0 0 0 0 0 0 0 0 0 0 0 0 0 0 0 0 0 0 0
0 0 0 0 0 0 0 0 0 0 0 0 0 0 0 0 0 0 0 0 0 0 0 0 0 0 0 0 0 0 0 0 0 0 0 0 0 0 0 0 0 0 0 0
0 0 0 0 0 0 0 0 0 0 0 0 0 0 0 0 0 0 0 0 0 0 0 0 0 0 0 0 0 0 0 0 0 0 0 0 0 0 0 0 0 0 0 0
0 0 0 0 0 0 0 0 0 0 0 0 0 0 0 0 0 0 0 0 0 0 0 0 0 0 0 0 0 0 0 0 0 0 0 0 0 0 0 0 0 0 0 0
Wind_Speed
7 6 4 6 7 7 9 8 7 7 6 5 2 1 0 1 1 2 2 2 3 3 2 2 2 1 1 1 1 1 2 2 2 2 1 1 1 1 1 2 2 3 3 3
6 6 6 9 9 10 10 10 11 10 10 3 1 1 1 0 1 1 2 3 3 3 3 2 2 2 2 1 1 1 1 2 2 1 2 2 2 2 2 2 2 2 3 3
4 3 4 9 9 10 8 7 7 9 7 1 1 1 1 0 0 1 2 2 3 3 3 3 2 2 2 2 1 1 2 2 2 2 2 2 2 2 2 3 2 3 3 3
3 2 9 6 2 4 6 6 6 4 2 1 1 1 0 1 0 1 2 2 2 3 3 3 2 2 2 1 1 1 2 2 2 2 2 2 2 3 3 3 3 3 4 4
3 5 9 4 3 3 4 4 4 4 3 0 2 2 1 1 1 1 1 2 2 2 2 3 3 3 2 2 1 1 2 2 2 2 2 3 3 3 3 2 3 3 3 4
5 6 7 3 2 2 2 4 2 3 2 1 2 1 2 1 2 2 2 2 2 3 3 2 3 3 2 2 2 2 3 2 2 2 2 3 3 3 2 2 3 3 3 3
8 7 7 1 3 4 3 4 1 2 2 2 2 2 0 2 2 2 2 2 3 3 3 3 3 2 3 3 3 3 2 2 2 2 3 3 3 2 2 2 3 3 3 3
6 8 8 2 4 4 3 1 2 1 1 2 1 1 1 1 1 2 2 2 3 3 3 3 3 2 3 3 3 2 2 2 2 2 2 2 2 2 2 2 3 3 3 3
7 6 1 5 3 2 2 1 0 1 1 2 1 1 1 1 1 2 2 2 2 2 3 3 3 3 3 3 3 3 3 3 3 2 2 2 2 2 2 2 2 3 2 3
3 3 1 2 1 1 1 1 1 1 1 1 1 1 1 1 2 2 2 2 2 2 3 4 3 3 3 3 3 3 3 3 2 2 2 2 2 2 2 2 2 3 3 3
5 3 2 1 1 0 0 1 1 1 0 1 1 2 2 2 2 2 2 2 2 2 3 4 4 4 4 3 2 3 3 3 2 2 2 2 2 2 3 3 3 3 3 3
6 3 3 3 2 1 1 1 1 1 1 1 1 2 2 2 2 2 2 2 3 3 3 4 4 4 4 3 3 2 3 3 2 2 2 2 2 3 4 4 5 6 5 5
3 2 2 2 1 1 1 1 0 1 1 1 1 1 2 2 2 2 3 3 3 3 4 4 4 5 4 3 3 3 3 3 2 2 2 2 2 3 4 4 5 5 6 6
1 1 2 2 2 1 0 0 0 1 1 1 1 1 1 2 3 3 3 3 3 3 4 4 4 5 4 3 3 3 3 4 3 3 2 3 3 3 3 3 4 4 4 6
2 2 2 2 1 0 0 1 0 1 1 1 1 1 2 3 4 4 4 3 3 3 4 4 4 5 4 3 4 4 3 3 3 3 3 3 3 3 3 3 3 3 3 3
2 1 2 1 1 1 0 0 1 1 1 2 2 2 3 3 4 4 3 3 3 4 4 4 4 4 4 4 4 4 3 5 4 3 3 3 3 3 3 3 3 3 3 3
2 3 3 2 2 2 2 2 2 2 2 2 2 3 3 3 4 4 4 3 3 4 4 4 5 4 4 4 4 3 3 4 5 4 3 3 3 3 3 3 4 4 3 4
3 4 4 3 3 3 2 2 2 2 2 2 2 2 3 3 4 5 4 4 4 4 4 4 4 4 4 4 3 3 3 3 3 3 3 3 3 3 3 3 4 4 3 3
2 2 1 1 1 2 1 1 1 1 2 1 2 3 4 4 4 4 4 4 4 5 4 3 5 4 4 4 4 3 3 3 3 3 3 5 4 3 3 3 4 4 3 3
0 1 1 1 1 0 1 1 1 2 2 2 2 3 4 4 4 4 4 4 4 4 4 4 4 3 4 4 5 3 3 3 3 3 3 3 3 3 3 3 3 3 3 3
1 1 1 1 1 1 1 1 1 2 2 2 2 3 4 4 4 3 3 4 4 3 3 5 3 3 3 4 6 3 3 3 3 3 3 3 4 4 3 3 3 3 3 3
1 1 1 1 1 2 2 1 1 2 2 2 3 3 3 4 4 3 3 3 3 5 4 3 3 5 6 7 3 3 3 4 3 3 3 3 3 4 3 3 3 3 3 2
2 2 2 2 1 2 2 2 2 2 2 2 3 3 3 4 3 3 4 3 3 6 4 3 6 8 10 5 3 3 4 4 4 3 3 3 3 3 3 3 3 3 2 2
3 3 2 2 2 2 2 2 2 2 2 3 3 3 3 3 3 2 2 5 7 7 4 6 9 10 9 4 3 3 3 3 3 3 3 3 3 3 3 3 3 2 2 2
3 2 2 2 2 2 2 2 3 3 3 2 3 4 3 2 3 3 3 4 7 7 4 6 9 10 6 3 3 3 3 3 3 3 3 2 2 2 2 2 2 2 2 2
3 2 2 2 2 2 2 2 2 3 3 3 3 3 3 3 3 3 3 4 5 7 5 4 4 5 4 3 4 4 3 4 4 3 2 2 2 2 2 2 2 2 2 2
3 3 2 3 3 3 3 3 3 3 3 4 4 4 4 4 4 4 4 4 4 4 4 4 3 3 3 4 4 4 3 3 3 3 2 2 2 2 2 2 2 2 2 2
Wind_Direction
267 280 259 250 244 224 219 224 238 262 272 281 284 283 298 22 24 13 6 5 358 346 346 359 355 340 326 293 255 210 202 215 224 224 216 236 252 249 238 233 235 229 228 231
270 255 260 262 247 235 233 236 247 265 274 276 352 22 31 6 15 345 347 352 352 349 350 346 337 329 324 307 296 270 234 228 226 221 224 230 239 248 244 245 245 237 230 227
260 255 287 261 235 220 220 220 223 242 255 250 297 254 242 225 310 322 346 348 348 343 339 332 324 307 290 283 288 267 252 238 221 218 224 225 232 235 233 231 236 241 239 233
253 268 243 239 173 190 213 231 221 241 252 226 214 237 170 109 43 355 350 344 342 339 335 330 328 329 317 310 295 282 276 259 242 231 235 234 231 235 237 233 230 235 238 239
215 247 265 247 212 175 190 245 213 223 243 300 66 19 290 86 62 31 8 355 346 338 331 332 336 336 335 325 319 305 290 275 267 246 243 241 241 244 245 241 244 242 238 238
219 234 245 240 145 128 122 253 202 181 195 126 88 265 262 48 50 27 17 10 360 351 348 345 337 339 333 319 315 300 294 289 283 266 252 249 246 251 253 246 246 250 253 247
224 240 257 231 130 116 174 242 153 145 166 157 194 222 232 42 35 21 9 3 3 353 342 332 331 334 320 314 301 297 302 297 286 270 260 256 254 253 251 253 251 251 258 260
204 225 245 139 134 175 211 94 109 129 153 156 158 74 52 32 6 358 355 356 359 349 335 332 334 329 314 308 306 315 312 299 287 277 274 271 256 255 246 242 246 251 259 268
204 216 221 156 167 155 110 127 122 123 116 133 153 250 308 318 321 326 333 343 347 340 329 325 328 328 312 307 317 320 312 301 295 291 279 265 253 256 260 247 244 252 254 262
258 252 204 191 136 78 90 108 83 92 97 123 219 253 274 288 298 309 320 328 330 328 320 315 322 325 309 309 317 311 301 296 295 292 289 283 274 256 250 250 248 250 254 261
259 279 303 241 222 217 185 104 100 98 174 216 216 248 258 266 277 287 302 308 308 301 299 303 316 316 313 313 314 305 298 294 294 290 285 286 280 267 260 254 244 252 251 246
238 231 229 256 256 253 228 231 205 196 278 271 224 251 272 273 273 277 283 292 298 297 298 305 312 309 308 311 303 292 292 291 286 285 286 282 284 299 286 272 282 278 273 267
256 296 292 302 321 357 262 260 246 230 237 258 262 252 271 282 288 288 288 290 290 292 296 303 307 306 304 306 302 290 285 286 284 280 279 281 283 284 297 304 291 286 283 285
303 332 296 295 291 311 305 308 328 315 288 254 282 304 293 285 285 284 283 282 287 291 294 298 301 301 305 311 306 293 286 283 281 275 271 271 268 269 271 281 296 299 288 285
291 277 254 268 273 328 50 66 22 298 310 329 339 310 289 283 284 287 291 293 294 291 291 293 295 299 311 314 304 293 288 282 276 275 273 270 269 270 268 269 275 285 296 298
260 279 266 252 245 281 21 11 267 271 290 303 308 300 295 292 290 290 290 285 283 286 289 292 292 297 304 303 296 291 283 280 282 278 277 275 271 269 269 270 273 275 276 280
208 234 239 243 242 247 236 237 247 260 269 276 287 301 307 305 297 293 293 290 282 281 284 287 290 299 302 299 295 288 287 287 288 283 272 269 267 265 266 269 272 274 271 272
235 238 231 227 229 239 248 247 250 257 264 279 294 300 293 287 287 292 297 302 301 297 292 287 292 301 299 297 294 285 282 281 277 273 274 272 272 267 267 268 268 272 277 277
241 241 232 239 243 237 246 263 279 287 289 287 288 285 287 287 290 296 303 303 298 296 299 304 309 308 301 298 300 287 281 280 283 282 278 280 282 269 264 262 263 266 269 271
48 67 67 23 5 350 308 315 318 309 300 295 295 296 298 299 300 299 299 289 280 278 293 310 314 307 304 303 307 291 281 277 278 280 281 276 273 272 268 268 266 265 267 269
39 49 56 44 13 3 341 308 298 300 305 302 290 288 293 298 298 295 292 293 294 299 307 312 312 302 301 302 305 292 288 285 279 274 274 277 278 275 273 270 268 269 268 272
25 49 43 34 30 1 348 343 328 314 315 313 305 298 299 302 305 299 282 275 289 309 314 305 302 303 307 311 302 293 289 287 282 278 275 274 274 273 274 273 270 269 267 267
29 34 33 26 18 356 348 349 339 323 311 305 302 302 301 300 299 297 300 301 309 316 317 301 308 312 315 315 305 299 296 294 291 289 285 279 275 274 275 275 271 270 268 270
33 31 23 16 23 22 357 344 342 335 324 315 312 311 309 310 311 303 296 313 321 321 317 312 318 320 323 323 312 305 299 296 295 294 290 285 280 276 274 273 274 277 276 275
27 23 17 15 13 360 347 346 347 342 341 337 333 330 325 314 306 316 322 321 322 325 321 318 321 324 328 320 316 310 304 299 296 295 288 285 282 280 278 279 279 277 274 271
18 15 11 7 358 348 345 347 344 339 340 336 333 336 335 334 329 325 322 319 319 321 321 316 318 322 322 318 316 313 310 310 312 308 297 291 284 283 285 285 284 279 275 274
14 12 10 7 4 2 358 352 345 338 336 330 325 330 333 332 329 327 325 323 323 321 318 318 320 318 316 315 313 313 313 313 310 304 300 295 290 285 281 279 280 282 281 277